VSV267 UAII-UBBB

Flight info

Callsign VSV267
Flight time N/A
Altitude 36000
Route ARSUL5D ARSUL Z380 KARIM N147 OTBOR/N0467F360 A480 TIMGA B476 NEBIT B738 KRS B143 TUNEK A909 RODAR M11 AMOKU
Aircraft B38M/M-SDE1FGHILORVWXY/HB1

Departure

Time 2026-05-08 16:17
Airport Shymkent International Airport (UAII)

Arrival

Time N/A
Airport Heydar Aliyev International Airport (UBBB)
Time Latitude Longitude Altitude Speed Heading
2026-05-08 15:39 42.36595 69.49037 1376 ft 0 kts 253°
2026-05-08 16:11 42.36595 69.49036 1376 ft 0 kts 253°
2026-05-08 16:11 42.36594 69.49030 1376 ft 0 kts 250°
2026-05-08 16:11 42.36589 69.49020 1376 ft 3 kts 227°
2026-05-08 16:11 42.36550 69.49017 1375 ft 8 kts 156°
2026-05-08 16:12 42.36488 69.49058 1374 ft 10 kts 150°
2026-05-08 16:12 42.36447 69.49123 1374 ft 7 kts 120°
2026-05-08 16:12 42.36425 69.49177 1374 ft 4 kts 115°
2026-05-08 16:12 42.36412 69.49214 1374 ft 5 kts 115°
2026-05-08 16:13 42.36391 69.49274 1375 ft 7 kts 115°
2026-05-08 16:13 42.36367 69.49315 1376 ft 4 kts 146°
2026-05-08 16:13 42.36343 69.49325 1377 ft 3 kts 181°
2026-05-08 16:13 42.36321 69.49317 1377 ft 4 kts 196°
2026-05-08 16:14 42.36286 69.49303 1377 ft 6 kts 197°
2026-05-08 16:14 42.36259 69.49292 1378 ft 0 kts 197°
2026-05-08 16:15 42.36253 69.49289 1378 ft 2 kts 197°
2026-05-08 16:15 42.36208 69.49270 1380 ft 10 kts 197°
2026-05-08 16:15 42.36156 69.49191 1380 ft 17 kts 274°
2026-05-08 16:16 42.36247 69.48759 1370 ft 81 kts 286°
2026-05-08 16:16 42.36468 69.47747 1356 ft 140 kts 286°
2026-05-08 16:16 42.36783 69.46292 1380 ft 170 kts 287°
2026-05-08 16:16 42.37132 69.44801 1477 ft 170 kts 288°
2026-05-08 16:17 42.37519 69.43244 1928 ft 177 kts 288°
2026-05-08 16:17 42.37776 69.42199 2356 ft 176 kts 287°
2026-05-08 16:17 42.38012 69.39940 2826 ft 200 kts 264°
2026-05-08 16:17 42.37890 69.37996 3050 ft 218 kts 269°
2026-05-08 16:18 42.37986 69.35811 3193 ft 240 kts 277°
2026-05-08 16:18 42.38217 69.33557 3734 ft 245 kts 278°
2026-05-08 16:18 42.38465 69.31273 4345 ft 247 kts 278°
2026-05-08 16:18 42.38703 69.28974 4944 ft 249 kts 278°
2026-05-08 16:19 42.38938 69.26625 5550 ft 250 kts 278°
2026-05-08 16:19 42.39170 69.24295 6138 ft 252 kts 277°
2026-05-08 16:19 42.39404 69.21941 6710 ft 253 kts 277°
2026-05-08 16:19 42.39639 69.19582 7268 ft 255 kts 277°
2026-05-08 16:20 42.39875 69.17220 7810 ft 256 kts 277°
2026-05-08 16:20 42.40114 69.14833 8346 ft 258 kts 277°
2026-05-08 16:20 42.40356 69.12429 8865 ft 260 kts 277°
2026-05-08 16:20 42.40600 69.10005 9382 ft 262 kts 276°
2026-05-08 16:21 42.40847 69.07560 9887 ft 263 kts 276°
2026-05-08 16:21 42.41097 69.05092 10385 ft 265 kts 276°
2026-05-08 16:21 42.41347 69.02630 10850 ft 268 kts 276°
2026-05-08 16:21 42.41602 69.00124 11256 ft 277 kts 276°
2026-05-08 16:22 42.41875 68.97436 11333 ft 298 kts 276°
2026-05-08 16:22 42.42171 68.94548 11415 ft 318 kts 276°
2026-05-08 16:22 42.42482 68.91524 11467 ft 336 kts 276°
2026-05-08 16:22 42.42924 68.88354 11747 ft 347 kts 283°
2026-05-08 16:23 42.43711 68.85229 12181 ft 354 kts 291°
2026-05-08 16:23 42.44854 68.82275 12708 ft 357 kts 301°
2026-05-08 16:23 42.46348 68.79565 13192 ft 361 kts 308°
2026-05-08 16:23 42.48047 68.77045 13668 ft 365 kts 311°
2026-05-08 16:24 42.49834 68.74583 14139 ft 367 kts 312°
2026-05-08 16:24 42.51634 68.72148 14597 ft 369 kts 313°
2026-05-08 16:24 42.53451 68.69697 15050 ft 371 kts 313°
2026-05-08 16:24 42.55285 68.67222 15495 ft 373 kts 313°
2026-05-08 16:25 42.57145 68.64709 15928 ft 376 kts 313°
2026-05-08 16:25 42.58988 68.62217 16353 ft 377 kts 312°
2026-05-08 16:25 42.60831 68.59721 16760 ft 379 kts 312°
2026-05-08 16:25 42.62698 68.57192 17168 ft 381 kts 312°
2026-05-08 16:26 42.64578 68.54642 17565 ft 383 kts 312°
2026-05-08 16:26 42.66473 68.52070 17950 ft 385 kts 312°
2026-05-08 16:26 42.68364 68.49500 18332 ft 387 kts 312°
2026-05-08 16:26 42.70259 68.46924 18702 ft 389 kts 312°
2026-05-08 16:27 42.72171 68.44321 19071 ft 390 kts 312°
2026-05-08 16:27 42.74094 68.41705 19437 ft 392 kts 312°
2026-05-08 16:27 42.76014 68.39093 19792 ft 394 kts 312°
2026-05-08 16:27 42.77956 68.36428 20153 ft 396 kts 312°
2026-05-08 16:28 42.79899 68.33753 20505 ft 397 kts 311°
2026-05-08 16:28 42.81831 68.31094 20847 ft 399 kts 311°
2026-05-08 16:28 42.83787 68.28406 21176 ft 401 kts 311°
2026-05-08 16:28 42.85753 68.25711 21498 ft 402 kts 311°
2026-05-08 16:29 42.87722 68.23012 21816 ft 404 kts 311°
2026-05-08 16:29 42.89734 68.20255 22128 ft 405 kts 311°
2026-05-08 16:29 42.91725 68.17524 22437 ft 407 kts 311°
2026-05-08 16:29 42.93714 68.14797 22737 ft 408 kts 311°
2026-05-08 16:30 42.95705 68.12064 23024 ft 410 kts 311°
2026-05-08 16:30 42.97726 68.09289 23319 ft 411 kts 311°
2026-05-08 16:30 42.99743 68.06516 23606 ft 412 kts 311°
2026-05-08 16:30 43.01778 68.03718 23884 ft 414 kts 311°
2026-05-08 16:31 43.03812 68.00916 24154 ft 415 kts 311°
2026-05-08 16:31 43.05853 67.98103 24428 ft 416 kts 311°
2026-05-08 16:31 43.07867 67.95325 24676 ft 418 kts 311°
2026-05-08 16:31 43.09918 67.92493 24944 ft 419 kts 311°
2026-05-08 16:32 43.11987 67.89635 25192 ft 421 kts 311°
2026-05-08 16:32 43.13965 67.86691 25420 ft 419 kts 304°
2026-05-08 16:32 43.15515 67.83350 25654 ft 416 kts 294°
2026-05-08 16:32 43.16614 67.79729 25905 ft 413 kts 285°
2026-05-08 16:33 43.17259 67.75909 26110 ft 412 kts 276°
2026-05-08 16:33 43.17429 67.71959 26344 ft 411 kts 267°
2026-05-08 16:33 43.17124 67.68096 26547 ft 412 kts 258°
2026-05-08 16:33 43.16472 67.64312 26755 ft 413 kts 256°
2026-05-08 16:34 43.15750 67.60455 26956 ft 414 kts 256°
2026-05-08 16:34 43.15028 67.56646 27175 ft 415 kts 256°
2026-05-08 16:34 43.14302 67.52832 27356 ft 416 kts 256°
2026-05-08 16:34 43.13574 67.49013 27567 ft 417 kts 256°
2026-05-08 16:35 43.12843 67.45186 27737 ft 419 kts 256°
2026-05-08 16:35 43.12100 67.41328 27952 ft 419 kts 255°
2026-05-08 16:35 43.11353 67.37475 28137 ft 420 kts 255°
2026-05-08 16:35 43.10601 67.33601 28329 ft 421 kts 255°
2026-05-08 16:36 43.09856 67.29765 28512 ft 422 kts 255°
2026-05-08 16:36 43.09102 67.25881 28704 ft 422 kts 255°
2026-05-08 16:36 43.08347 67.21993 28893 ft 423 kts 255°
2026-05-08 16:36 43.07587 67.18081 29057 ft 424 kts 255°
2026-05-08 16:37 43.06834 67.14211 29221 ft 425 kts 255°
2026-05-08 16:37 43.06077 67.10318 29343 ft 427 kts 255°
2026-05-08 16:37 43.05311 67.06387 29474 ft 429 kts 255°
2026-05-08 16:37 43.04544 67.02456 29651 ft 429 kts 254°
2026-05-08 16:38 43.03766 66.98469 29823 ft 430 kts 254°
2026-05-08 16:38 43.03000 66.94561 29991 ft 430 kts 254°
2026-05-08 16:38 43.02227 66.90616 30200 ft 429 kts 254°
2026-05-08 16:38 43.01458 66.86704 30409 ft 429 kts 254°
2026-05-08 16:39 43.00679 66.82743 30612 ft 428 kts 254°
2026-05-08 16:39 42.99916 66.78877 30808 ft 427 kts 254°
2026-05-08 16:39 42.99128 66.74920 31011 ft 427 kts 254°
2026-05-08 16:39 42.98340 66.71039 31184 ft 426 kts 254°
2026-05-08 16:40 42.97549 66.67137 31385 ft 425 kts 254°
2026-05-08 16:40 42.96762 66.63244 31564 ft 425 kts 254°
2026-05-08 16:40 42.95978 66.59363 31751 ft 424 kts 254°
2026-05-08 16:40 42.95207 66.55533 31930 ft 424 kts 254°
2026-05-08 16:41 42.94421 66.51633 32105 ft 423 kts 254°
2026-05-08 16:41 42.93642 66.47765 32270 ft 423 kts 254°
2026-05-08 16:41 42.92861 66.43889 32446 ft 422 kts 254°
2026-05-08 16:42 42.91314 66.36226 32778 ft 421 kts 254°
2026-05-08 16:42 42.90536 66.32385 32935 ft 421 kts 253°
2026-05-08 16:42 42.89750 66.28518 33111 ft 420 kts 254°
2026-05-08 16:42 42.88963 66.24652 33286 ft 420 kts 254°
2026-05-08 16:43 42.88187 66.20841 33439 ft 419 kts 254°
2026-05-08 16:43 42.87408 66.17025 33611 ft 419 kts 254°
2026-05-08 16:43 42.86631 66.13222 33768 ft 418 kts 254°
2026-05-08 16:43 42.85849 66.09396 33933 ft 418 kts 254°
2026-05-08 16:44 42.85063 66.05615 34085 ft 417 kts 253°
2026-05-08 16:44 42.84263 66.01826 34229 ft 417 kts 253°
2026-05-08 16:44 42.83459 65.98016 34375 ft 416 kts 253°
2026-05-08 16:44 42.82663 65.94229 34515 ft 416 kts 253°
2026-05-08 16:45 42.81876 65.90473 34647 ft 416 kts 253°
2026-05-08 16:45 42.81086 65.86697 34783 ft 415 kts 253°
2026-05-08 16:45 42.80290 65.82896 34915 ft 415 kts 253°
2026-05-08 16:45 42.79499 65.79115 35046 ft 415 kts 253°
2026-05-08 16:46 42.78718 65.75390 35167 ft 414 kts 253°
2026-05-08 16:46 42.77915 65.71593 35291 ft 414 kts 253°
2026-05-08 16:46 42.77122 65.67858 35404 ft 414 kts 253°
2026-05-08 16:46 42.76323 65.64089 35528 ft 413 kts 253°
2026-05-08 16:47 42.75530 65.60345 35645 ft 413 kts 253°
2026-05-08 16:47 42.74740 65.56614 35764 ft 413 kts 253°
2026-05-08 16:47 42.73942 65.52850 35885 ft 413 kts 253°
2026-05-08 16:47 42.73148 65.49105 35996 ft 413 kts 253°
2026-05-08 16:48 42.72352 65.45356 35993 ft 415 kts 253°
2026-05-08 16:48 42.70735 65.37752 35993 ft 418 kts 254°
2026-05-08 16:49 42.69112 65.30150 35992 ft 417 kts 253°
2026-05-08 16:49 42.67485 65.22570 35993 ft 416 kts 253°
2026-05-08 16:50 42.65873 65.15075 35993 ft 416 kts 253°
2026-05-08 16:50 42.64238 65.07496 35993 ft 417 kts 253°
2026-05-08 16:51 42.62614 64.99990 35993 ft 417 kts 253°
2026-05-08 16:51 42.60978 64.92451 35992 ft 416 kts 254°
2026-05-08 16:52 42.59346 64.84963 35993 ft 414 kts 254°
2026-05-08 16:52 42.57717 64.77512 35993 ft 414 kts 255°
2026-05-08 16:53 42.55250 64.66278 35993 ft 415 kts 255°
2026-05-08 16:53 42.53601 64.58800 35993 ft 415 kts 255°
2026-05-08 16:54 42.51950 64.51341 35993 ft 415 kts 255°
2026-05-08 16:54 42.50286 64.43847 35993 ft 414 kts 255°
2026-05-08 16:55 42.48630 64.36416 35993 ft 415 kts 255°
2026-05-08 16:55 42.46960 64.28960 35993 ft 415 kts 254°
2026-05-08 16:56 42.45276 64.21474 35992 ft 415 kts 253°
2026-05-08 16:56 42.43538 64.14023 35992 ft 415 kts 253°
2026-05-08 16:57 42.41830 64.06623 35993 ft 415 kts 253°
2026-05-08 16:57 42.40135 63.99190 35993 ft 415 kts 254°
2026-05-08 16:58 42.38417 63.91757 35993 ft 415 kts 253°
2026-05-08 16:58 42.36697 63.84327 35993 ft 415 kts 254°
2026-05-08 16:59 42.34980 63.76898 35991 ft 415 kts 254°
2026-05-08 16:59 42.33264 63.69482 35987 ft 415 kts 254°
2026-05-08 17:00 42.31542 63.62048 35982 ft 414 kts 254°
2026-05-08 17:00 42.29825 63.54656 35977 ft 415 kts 254°
2026-05-08 17:01 42.28094 63.47227 35974 ft 415 kts 254°
2026-05-08 17:01 42.26356 63.39792 35970 ft 415 kts 254°
2026-05-08 17:02 42.24627 63.32420 35968 ft 415 kts 253°
2026-05-08 17:02 42.22874 63.24988 35966 ft 415 kts 253°
2026-05-08 17:03 42.21125 63.17588 35965 ft 415 kts 253°
2026-05-08 17:03 42.19369 63.10180 35967 ft 415 kts 253°
2026-05-08 17:04 42.17622 63.02828 35982 ft 414 kts 253°
2026-05-08 17:04 42.15852 62.95484 35998 ft 412 kts 254°
2026-05-08 17:05 42.14059 62.88163 36015 ft 412 kts 254°
2026-05-08 17:05 42.12284 62.80865 36019 ft 408 kts 255°
2026-05-08 17:06 42.10529 62.73635 36021 ft 410 kts 255°
2026-05-08 17:06 42.08762 62.66363 36017 ft 410 kts 255°
2026-05-08 17:07 42.06988 62.59061 36020 ft 411 kts 255°
2026-05-08 17:07 42.05209 62.51770 36019 ft 411 kts 255°
2026-05-08 17:08 42.03423 62.44461 36020 ft 411 kts 255°
2026-05-08 17:08 42.01651 62.37201 36018 ft 411 kts 255°
2026-05-08 17:09 41.99901 62.30060 36019 ft 412 kts 254°
2026-05-08 17:09 41.98111 62.22782 36018 ft 410 kts 254°
2026-05-08 17:10 41.96315 62.15502 36046 ft 410 kts 255°
2026-05-08 17:10 41.94527 62.08270 36046 ft 412 kts 254°
2026-05-08 17:11 41.92701 62.00960 36047 ft 413 kts 254°
2026-05-08 17:11 41.90868 61.93656 36046 ft 414 kts 254°
2026-05-08 17:12 41.89048 61.86400 36045 ft 409 kts 254°
2026-05-08 17:12 41.87233 61.79140 36047 ft 410 kts 254°
2026-05-08 17:13 41.85416 61.71902 36047 ft 411 kts 254°
2026-05-08 17:13 41.83585 61.64712 36045 ft 410 kts 254°
2026-05-08 17:14 41.81734 61.57420 36048 ft 412 kts 254°
2026-05-08 17:14 41.79892 61.50169 36046 ft 413 kts 254°
2026-05-08 17:15 41.78030 61.42857 36046 ft 414 kts 254°
2026-05-08 17:15 41.76182 61.35599 36046 ft 413 kts 254°
2026-05-08 17:16 41.74326 61.28363 36047 ft 410 kts 253°
2026-05-08 17:16 41.72479 61.21166 36046 ft 412 kts 253°
2026-05-08 17:17 41.70615 61.13947 36046 ft 407 kts 254°
2026-05-08 17:17 41.68776 61.06830 36047 ft 405 kts 253°
2026-05-08 17:18 41.66937 60.99718 36050 ft 405 kts 253°
2026-05-08 17:18 41.65089 60.92593 36047 ft 404 kts 253°
2026-05-08 17:19 41.63242 60.85511 36048 ft 404 kts 253°
2026-05-08 17:19 41.61390 60.78411 36048 ft 404 kts 253°
2026-05-08 17:20 41.59548 60.71372 36046 ft 402 kts 253°
2026-05-08 17:20 41.57715 60.64377 36047 ft 402 kts 254°
2026-05-08 17:21 41.55991 60.57242 36048 ft 404 kts 255°
2026-05-08 17:21 41.54321 60.50079 36047 ft 403 kts 256°
2026-05-08 17:22 41.52671 60.43005 36045 ft 400 kts 256°
2026-05-08 17:22 41.51010 60.35883 36046 ft 401 kts 256°
2026-05-08 17:23 41.49349 60.28789 36048 ft 402 kts 255°
2026-05-08 17:23 41.47673 60.21677 36048 ft 402 kts 255°
2026-05-08 17:24 41.45973 60.14562 36048 ft 403 kts 255°
2026-05-08 17:24 41.44246 60.07435 36043 ft 402 kts 255°
2026-05-08 17:25 41.42543 60.00383 36048 ft 400 kts 255°
2026-05-08 17:25 41.40825 59.93272 36048 ft 403 kts 255°
2026-05-08 17:26 41.39117 59.86213 36046 ft 401 kts 255°
2026-05-08 17:26 41.37420 59.79198 36045 ft 399 kts 255°
2026-05-08 17:27 41.35703 59.72116 36047 ft 401 kts 256°
2026-05-08 17:27 41.34463 59.64860 36046 ft 401 kts 262°
2026-05-08 17:28 41.33620 59.57579 36046 ft 399 kts 264°
2026-05-08 17:28 41.32880 59.50300 36046 ft 399 kts 264°
2026-05-08 17:29 41.32167 59.42948 36046 ft 400 kts 264°
2026-05-08 17:29 41.31470 59.35657 36047 ft 400 kts 264°
2026-05-08 17:30 41.30761 59.28297 36047 ft 401 kts 264°
2026-05-08 17:30 41.30047 59.20923 36045 ft 399 kts 264°
2026-05-08 17:31 41.29348 59.13610 36045 ft 398 kts 264°
2026-05-08 17:31 41.28648 59.06346 36047 ft 398 kts 264°
2026-05-08 17:32 41.27936 58.99012 36048 ft 402 kts 264°
2026-05-08 17:32 41.27221 58.91666 36046 ft 401 kts 263°
2026-05-08 17:33 41.26500 58.84333 36047 ft 400 kts 263°
2026-05-08 17:33 41.25775 58.77004 36047 ft 402 kts 263°
2026-05-08 17:34 41.25045 58.69667 36046 ft 402 kts 263°
2026-05-08 17:34 41.24308 58.62332 36046 ft 399 kts 263°
2026-05-08 17:35 41.23568 58.55022 36047 ft 400 kts 263°
2026-05-08 17:35 41.22823 58.47695 36046 ft 401 kts 263°
2026-05-08 17:36 41.22079 58.40416 36046 ft 399 kts 263°
2026-05-08 17:36 41.21327 58.33096 36049 ft 398 kts 262°
2026-05-08 17:37 41.20565 58.25787 36048 ft 401 kts 262°
2026-05-08 17:37 41.19802 58.18481 36046 ft 401 kts 262°
2026-05-08 17:38 41.19033 58.11167 36047 ft 400 kts 262°
2026-05-08 17:38 41.18227 58.03884 36046 ft 399 kts 261°
2026-05-08 17:39 41.17388 57.96599 36046 ft 399 kts 262°
2026-05-08 17:39 41.16575 57.89311 36048 ft 400 kts 262°
2026-05-08 17:40 41.15776 57.82010 36046 ft 399 kts 262°
2026-05-08 17:40 41.14975 57.74669 36048 ft 401 kts 262°
2026-05-08 17:41 41.14177 57.67352 36046 ft 401 kts 262°
2026-05-08 17:41 41.13381 57.60094 36047 ft 399 kts 262°
2026-05-08 17:42 41.12579 57.52799 36047 ft 399 kts 262°
2026-05-08 17:42 41.11774 57.45530 36048 ft 401 kts 262°
2026-05-08 17:43 41.10959 57.38207 36047 ft 401 kts 262°
2026-05-08 17:43 41.10142 57.30939 36046 ft 400 kts 262°
2026-05-08 17:44 41.09308 57.23591 36046 ft 401 kts 262°
2026-05-08 17:44 41.08481 57.16311 36046 ft 401 kts 262°
2026-05-08 17:45 41.07650 57.09032 36047 ft 400 kts 262°
2026-05-08 17:45 41.06814 57.01737 36047 ft 399 kts 262°
2026-05-08 17:46 41.05978 56.94482 36047 ft 400 kts 262°
2026-05-08 17:46 41.05140 56.87256 36046 ft 400 kts 262°
2026-05-08 17:47 41.04292 56.79980 36047 ft 400 kts 262°
2026-05-08 17:47 41.03846 56.76173 36046 ft 400 kts 262°
2026-05-08 17:48 41.02851 56.67708 36047 ft 401 kts 262°
2026-05-08 17:48 41.01988 56.60424 36052 ft 400 kts 262°
2026-05-08 17:49 41.01005 56.53172 36072 ft 400 kts 256°
2026-05-08 17:49 40.99385 56.46149 36102 ft 403 kts 254°
2026-05-08 17:50 40.97625 56.39101 36139 ft 404 kts 253°
2026-05-08 17:50 40.95834 56.32063 36153 ft 405 kts 253°
2026-05-08 17:51 40.94016 56.25006 36151 ft 405 kts 252°
2026-05-08 17:51 40.92194 56.17970 36152 ft 403 kts 253°
2026-05-08 17:52 40.90384 56.11003 36156 ft 403 kts 252°
2026-05-08 17:53 40.87627 56.00438 36155 ft 406 kts 252°
2026-05-08 17:53 40.85789 55.93420 36154 ft 405 kts 252°
2026-05-08 17:54 40.83950 55.86420 36154 ft 404 kts 253°
2026-05-08 17:54 40.82093 55.79376 36156 ft 405 kts 252°
2026-05-08 17:55 40.80244 55.72375 36155 ft 405 kts 252°
2026-05-08 17:55 40.78384 55.65358 36155 ft 405 kts 252°
2026-05-08 17:56 40.76526 55.58364 36155 ft 406 kts 252°
2026-05-08 17:56 40.74663 55.51374 36154 ft 405 kts 252°
2026-05-08 17:57 40.72799 55.44407 36155 ft 403 kts 253°
2026-05-08 17:57 40.70926 55.37420 36156 ft 404 kts 252°
2026-05-08 17:58 40.69044 55.30428 36155 ft 405 kts 252°
2026-05-08 17:58 40.67159 55.23454 36155 ft 405 kts 252°
2026-05-08 17:59 40.65265 55.16456 36156 ft 404 kts 252°
2026-05-08 17:59 40.63378 55.09497 36155 ft 405 kts 252°
2026-05-08 18:00 40.61486 55.02535 36155 ft 406 kts 251°
2026-05-08 18:00 40.58629 54.92059 36155 ft 406 kts 251°
2026-05-08 18:01 40.56721 54.85092 36155 ft 406 kts 251°
2026-05-08 18:01 40.54797 54.78075 36155 ft 406 kts 251°
2026-05-08 18:02 40.53200 54.72274 36154 ft 405 kts 251°
2026-05-08 18:02 40.50965 54.64176 36156 ft 407 kts 251°
2026-05-08 18:03 40.49036 54.57202 36155 ft 408 kts 251°
2026-05-08 18:03 40.47097 54.50218 36154 ft 406 kts 251°
2026-05-08 18:04 40.45163 54.43274 36155 ft 406 kts 251°
2026-05-08 18:04 40.43218 54.36305 36154 ft 405 kts 251°
2026-05-08 18:05 40.41289 54.29422 36156 ft 405 kts 251°
2026-05-08 18:05 40.39333 54.22468 36155 ft 405 kts 251°
2026-05-08 18:06 40.37379 54.15529 36155 ft 406 kts 251°
2026-05-08 18:06 40.35419 54.08584 36155 ft 407 kts 251°
2026-05-08 18:07 40.33460 54.01659 36155 ft 406 kts 251°
2026-05-08 18:07 40.31493 53.94722 36155 ft 406 kts 251°
2026-05-08 18:08 40.29532 53.87828 36155 ft 407 kts 251°
2026-05-08 18:08 40.27558 53.80911 36155 ft 406 kts 251°
2026-05-08 18:09 40.25574 53.73967 36155 ft 405 kts 251°
2026-05-08 18:09 40.23602 53.67095 36156 ft 406 kts 251°
2026-05-08 18:10 40.21610 53.60163 36155 ft 406 kts 251°
2026-05-08 18:10 40.19623 53.53266 36154 ft 407 kts 251°
2026-05-08 18:11 40.17625 53.46354 36155 ft 406 kts 251°
2026-05-08 18:11 40.15631 53.39478 36155 ft 407 kts 251°
2026-05-08 18:12 40.13623 53.32570 36154 ft 406 kts 250°
2026-05-08 18:12 40.11606 53.25658 36155 ft 406 kts 250°
2026-05-08 18:13 40.09600 53.18798 36155 ft 406 kts 250°
2026-05-08 18:13 40.07577 53.11891 36154 ft 406 kts 250°
2026-05-08 18:14 40.05821 53.04940 36152 ft 403 kts 263°
2026-05-08 18:14 40.05809 53.01302 36156 ft 404 kts 276°
2026-05-08 18:14 40.06486 52.97767 36158 ft 409 kts 289°
2026-05-08 18:15 40.09325 52.91204 36154 ft 417 kts 300°
2026-05-08 18:15 40.12584 52.84958 36154 ft 419 kts 301°
2026-05-08 18:16 40.15904 52.78654 36155 ft 421 kts 301°
2026-05-08 18:16 40.19206 52.72382 36154 ft 420 kts 301°
2026-05-08 18:17 40.22426 52.66067 36154 ft 418 kts 297°
2026-05-08 18:17 40.25111 52.59335 36156 ft 416 kts 292°
2026-05-08 18:18 40.27291 52.52374 36155 ft 414 kts 286°
2026-05-08 18:18 40.28882 52.45145 36155 ft 412 kts 283°
2026-05-08 18:19 40.30303 52.37878 36154 ft 411 kts 282°
2026-05-08 18:19 40.31701 52.30618 36156 ft 412 kts 282°
2026-05-08 18:20 40.33087 52.23333 36154 ft 413 kts 282°
2026-05-08 18:20 40.34477 52.16002 36155 ft 411 kts 282°
2026-05-08 18:21 40.35843 52.08789 35969 ft 407 kts 282°
2026-05-08 18:21 40.36521 52.05194 35247 ft 406 kts 282°
2026-05-08 18:21 40.37191 52.01615 34431 ft 407 kts 282°
2026-05-08 18:22 40.37863 51.98036 33665 ft 406 kts 282°
2026-05-08 18:22 40.38529 51.94477 32896 ft 406 kts 282°
2026-05-08 18:22 40.39201 51.90877 32105 ft 408 kts 282°
2026-05-08 18:22 40.39884 51.87216 31272 ft 412 kts 282°
2026-05-08 18:23 40.40558 51.83588 30428 ft 416 kts 282°
2026-05-08 18:23 40.41238 51.79927 29690 ft 412 kts 282°
2026-05-08 18:23 40.41906 51.76333 29166 ft 403 kts 282°
2026-05-08 18:23 40.42569 51.72747 28591 ft 404 kts 282°
2026-05-08 18:24 40.43234 51.69157 27972 ft 404 kts 282°
2026-05-08 18:24 40.43888 51.65625 27349 ft 398 kts 282°
2026-05-08 18:24 40.44530 51.62152 26743 ft 392 kts 282°
2026-05-08 18:24 40.45174 51.58649 26129 ft 387 kts 282°
2026-05-08 18:25 40.45796 51.55248 25536 ft 389 kts 282°
2026-05-08 18:25 40.46405 51.51787 24897 ft 387 kts 279°
2026-05-08 18:25 40.46813 51.48358 24277 ft 381 kts 276°
2026-05-08 18:25 40.47149 51.44941 23722 ft 375 kts 276°
2026-05-08 18:26 40.47467 51.41573 23114 ft 370 kts 276°
2026-05-08 18:26 40.47781 51.38225 22518 ft 369 kts 276°
2026-05-08 18:26 40.48093 51.34889 21933 ft 371 kts 275°
2026-05-08 18:26 40.48407 51.31536 21318 ft 367 kts 275°
2026-05-08 18:27 40.48712 51.28255 20728 ft 362 kts 275°
2026-05-08 18:27 40.48914 51.26096 20340 ft 359 kts 275°
2026-05-08 18:27 40.49314 51.21784 19563 ft 353 kts 275°
2026-05-08 18:27 40.49611 51.18600 18971 ft 346 kts 275°
2026-05-08 18:28 40.49900 51.15451 18426 ft 352 kts 275°
2026-05-08 18:28 40.50191 51.12268 17824 ft 347 kts 275°
2026-05-08 18:28 40.50473 51.09200 17261 ft 338 kts 275°
2026-05-08 18:28 40.50756 51.06100 16713 ft 346 kts 275°
2026-05-08 18:29 40.51043 51.02962 16106 ft 336 kts 275°
2026-05-08 18:29 40.51319 50.99938 15574 ft 336 kts 275°
2026-05-08 18:29 40.51597 50.96872 15032 ft 340 kts 275°
2026-05-08 18:29 40.51876 50.93830 14469 ft 335 kts 276°
2026-05-08 18:30 40.52343 50.90851 14153 ft 334 kts 282°
2026-05-08 18:30 40.52992 50.87877 14162 ft 341 kts 284°
2026-05-08 18:30 40.53693 50.84902 14150 ft 342 kts 285°
2026-05-08 18:30 40.54404 50.81918 14152 ft 341 kts 285°
2026-05-08 18:31 40.55121 50.78908 14154 ft 340 kts 285°
2026-05-08 18:31 40.55819 50.75964 14155 ft 340 kts 285°
2026-05-08 18:31 40.56525 50.72977 14155 ft 341 kts 285°
2026-05-08 18:31 40.57227 50.69996 14154 ft 341 kts 285°
2026-05-08 18:32 40.57928 50.67017 14155 ft 341 kts 285°
2026-05-08 18:32 40.58622 50.64066 14155 ft 340 kts 285°
2026-05-08 18:32 40.59322 50.61083 14155 ft 341 kts 285°
2026-05-08 18:32 40.60023 50.58088 14155 ft 341 kts 285°
2026-05-08 18:33 40.60716 50.55130 14155 ft 341 kts 285°
2026-05-08 18:33 40.61410 50.52140 14155 ft 341 kts 284°
2026-05-08 18:33 40.62098 50.49171 14155 ft 340 kts 284°
2026-05-08 18:33 40.62794 50.46170 14155 ft 341 kts 285°
2026-05-08 18:34 40.63491 50.43175 14155 ft 341 kts 285°
2026-05-08 18:34 40.64179 50.40215 14155 ft 341 kts 285°
2026-05-08 18:34 40.64878 50.37206 14155 ft 341 kts 285°
2026-05-08 18:34 40.65566 50.34244 14155 ft 341 kts 284°
2026-05-08 18:35 40.66262 50.31242 14155 ft 341 kts 284°
2026-05-08 18:35 40.66955 50.28243 14155 ft 341 kts 284°
2026-05-08 18:35 40.67647 50.25260 14153 ft 341 kts 287°
2026-05-08 18:35 40.68714 50.22446 14140 ft 344 kts 301°
2026-05-08 18:36 40.70213 50.20187 13893 ft 339 kts 315°
2026-05-08 18:36 40.72203 50.18440 13460 ft 354 kts 332°
2026-05-08 18:36 40.74578 50.17496 12869 ft 357 kts 348°
2026-05-08 18:36 40.77032 50.17214 12249 ft 357 kts 355°
2026-05-08 18:37 40.79501 50.17182 11727 ft 353 kts 357°
2026-05-08 18:37 40.81923 50.17199 11206 ft 348 kts 358°
2026-05-08 18:37 40.84304 50.17211 10699 ft 344 kts 358°
2026-05-08 18:37 40.86651 50.17219 10445 ft 331 kts 358°
2026-05-08 18:38 40.88901 50.17224 10362 ft 315 kts 358°
2026-05-08 18:38 40.91040 50.17231 10275 ft 301 kts 358°